| time (UTC) | temp F | wind direction | speed MPH | gust MPH | rain 1hr in | rain 24hr in | rain mn in | humidity % | barometer mb |
| 20260504190050 | 81 | 134 | 1.0 | 10.0 | 0.00 | 0.00 | 0.00 | 59 | 1014.7 |
| 20260504184547 | 81 | 113 | 6.0 | 13.0 | 0.00 | 0.00 | 0.00 | 58 | 1014.8 |
| 20260504183045 | 79 | 84 | 4.0 | 14.0 | 0.00 | 0.00 | 0.00 | 58 | 1015.0 |
| 20260504181550 | 79 | 129 | 5.0 | 14.0 | 0.00 | 0.00 | 0.00 | 58 | 1014.9 |
| 20260504180052 | 80 | 126 | 3.0 | 14.0 | 0.00 | 0.00 | 0.00 | 60 | 1015.2 |
| 20260504174550 | 80 | 70 | 4.0 | 11.0 | 0.00 | 0.00 | 0.00 | 59 | 1015.5 |
| 20260504173046 | 78 | 103 | 3.0 | 14.0 | 0.00 | 0.00 | 0.00 | 62 | 1015.7 |
| 20260504171554 | 78 | 99 | 3.0 | 10.0 | 0.00 | 0.00 | 0.00 | 61 | 1015.9 |
| 20260504081553 | 60 | 0 | 0.0 | 2.0 | 0.00 | 0.00 | 0.00 | 77 | 1017.3 |
| 20260504080112 | 60 | 127 | 0.0 | 1.0 | 0.00 | 0.00 | 0.00 | 79 | 1017.5 |
| 20260504044553 | 64 | 125 | 1.0 | 1.0 | 0.00 | 0.00 | 0.00 | 69 | 1019.6 |
| 20260504043052 | 64 | 124 | 0.0 | 3.0 | 0.00 | 0.00 | 0.00 | 68 | 1019.7 |
| 20260504041549 | 65 | 0 | 0.0 | 3.0 | 0.00 | 0.00 | 0.00 | 66 | 1019.8 |
| 20260504040113 | 66 | 110 | 1.0 | 7.0 | 0.00 | 0.00 | 0.00 | 65 | 1019.7 |
| 20260504034556 | 66 | 120 | 2.0 | 4.0 | 0.00 | 0.00 | 0.00 | 65 | 1019.5 |
| 20260504033049 | 66 | 122 | 1.0 | 3.0 | 0.00 | 0.00 | 0.00 | 64 | 1019.7 |
| 20260504031551 | 67 | 121 | 1.0 | 5.0 | 0.00 | 0.00 | 0.00 | 63 | 1019.5 |
| 20260504030051 | 67 | 122 | 1.0 | 5.0 | 0.00 | 0.00 | 0.00 | 62 | 1019.4 |
| 20260504024548 | 67 | 124 | 2.0 | 6.0 | 0.00 | 0.00 | 0.00 | 60 | 1019.1 |
| 20260504023059 | 68 | 120 | 2.0 | 7.0 | 0.00 | 0.00 | 0.00 | 58 | 1019.2 |
| 20260504021551 | 69 | 111 | 2.0 | 7.0 | 0.00 | 0.00 | 0.00 | 57 | 1019.1 |
| 20260504020048 | 70 | 121 | 2.0 | 6.0 | 0.00 | 0.00 | 0.00 | 55 | 1019.2 |
| 20260504014557 | 70 | 119 | 2.0 | 8.0 | 0.00 | 0.00 | 0.00 | 53 | 1019.0 |
| 20260504013058 | 71 | 129 | 3.0 | 11.0 | 0.00 | 0.00 | 0.00 | 52 | 1019.0 |
| 20260504011548 | 71 | 98 | 3.0 | 9.0 | 0.00 | 0.00 | 0.00 | 51 | 1019.0 |
| 20260504010054 | 72 | 96 | 4.0 | 8.0 | 0.00 | 0.00 | 0.00 | 50 | 1018.9 |
| 20260504004552 | 73 | 104 | 2.0 | 8.0 | 0.00 | 0.00 | 0.00 | 49 | 1018.9 |
| 20260504003055 | 74 | 110 | 5.0 | 10.0 | 0.00 | 0.00 | 0.00 | 47 | 1019.1 |
| 20260504001602 | 74 | 94 | 3.0 | 11.0 | 0.00 | 0.00 | 0.00 | 46 | 1018.9 |
| 20260504000108 | 76 | 113 | 3.0 | 10.0 | 0.00 | 0.00 | 0.00 | 44 | 1018.9 |
| 20260503234552 | 77 | 129 | 7.0 | 12.0 | 0.00 | 0.00 | 0.00 | 44 | 1019.0 |
| 20260503233048 | 78 | 106 | 4.0 | 9.0 | 0.00 | 0.00 | 0.00 | 42 | 1018.9 |
| 20260503231550 | 79 | 137 | 0.0 | 7.0 | 0.00 | 0.00 | 0.00 | 36 | 1019.1 |
| 20260503230050 | 78 | 118 | 4.0 | 8.0 | 0.00 | 0.00 | 0.00 | 36 | 1019.0 |
| 20260503224547 | 79 | 118 | 1.0 | 10.0 | 0.00 | 0.00 | 0.00 | 35 | 1019.1 |
| 20260503223050 | 80 | 109 | 2.0 | 7.0 | 0.00 | 0.00 | 0.00 | 35 | 1019.3 |
| 20260503221553 | 80 | 113 | 3.0 | 9.0 | 0.00 | 0.00 | 0.00 | 34 | 1019.6 |
| 20260503220052 | 80 | 112 | 4.0 | 9.0 | 0.00 | 0.00 | 0.00 | 33 | 1019.8 |
| 20260503214546 | 80 | 72 | 3.0 | 9.0 | 0.00 | 0.00 | 0.00 | 33 | 1019.7 |
| 20260503213048 | 80 | 127 | 5.0 | 12.0 | 0.00 | 0.00 | 0.00 | 32 | 1020.2 |
| 20260503211552 | 80 | 135 | 2.0 | 6.0 | 0.00 | 0.00 | 0.00 | 34 | 1020.3 |
| 20260503210051 | 81 | 126 | 1.0 | 4.0 | 0.00 | 0.00 | 0.00 | 32 | 1020.4 |
| 20260503204550 | 80 | 120 | 3.0 | 6.0 | 0.00 | 0.00 | 0.00 | 32 | 1020.5 |
| 20260503203056 | 80 | 114 | 3.0 | 6.0 | 0.00 | 0.00 | 0.00 | 35 | 1020.8 |
| 20260503201554 | 80 | 127 | 2.0 | 10.0 | 0.00 | 0.00 | 0.00 | 32 | 1021.1 |
| 20260503200058 | 80 | 131 | 2.0 | 7.0 | 0.00 | 0.00 | 0.00 | 35 | 1021.4 |
| 20260503194553 | 80 | 125 | 3.0 | 6.0 | 0.00 | 0.00 | 0.00 | 35 | 1021.7 |
| 20260503193049 | 80 | 108 | 1.0 | 5.0 | 0.00 | 0.00 | 0.00 | 36 | 1021.8 |
| 20260503191603 | 81 | 107 | 3.0 | 7.0 | 0.00 | 0.00 | 0.00 | 36 | 1022.1 |